sat.trackr.live / text

‹ back to catalog

ANDESITE

NORAD 45726 · 2020-037D

PAYLOAD ACTIVE UNKNOWN

§ Identity

Operator
Country
US
Launch date
2020-06-13
Launch site
RLLB
Launch vehicle
Mass (kg)
RCS (m²)

External: N2YO · Heavens-Above · Gunter

§ Orbital elements

Epoch: 2026-09-19T23:44:40.500096Z

Period
95.61 min
Inclination
97.7824°
Eccentricity
0.0008200
Mean motion
15.06082137 rev/d
Perigee alt
542.5 km
Apogee alt
553.9 km
Semi-major
6,926.3 km
B*
8.8743e-5
RAAN
96.8131°
Arg perigee
199.8827°
Mean anomaly
160.2081°
Rev number
33,993

§ Raw data

ANDESITE1 45726U 20037D   26262.98935764  .00001232  00000+0  88743-4 0  99962 45726  97.7824  96.8131 0008200 199.8827 160.2081 15.06082137339933

JSON: /api/v1/satellites/45726 · /tle

For live sub-satellite position, see the globe view (requires WebGL).

§ Visibility from observer

Set your observer location to see the next 7 days of passes ≥ 10°. The values pass through the URL so the page stays shareable.

No JS? Fill the form by hand. The geolocation button needs JavaScript.